Time,TemperatureF,DewpointF,PressureIn,WindDirection,WindDirectionDegrees,WindSpeedMPH,WindSpeedGustMPH,Humidity,HourlyPrecipIn,Conditions,Clouds,dailyrainin,SoftwareType,DateUTC
2013-05-17 00:01:00,53.0,48.9,29.79,NNE,27,1.0,1.0,86,0.00,,,0.00,Wunderground v.1.15,2013-05-17 04:01:00,
2013-05-17 00:02:00,53.1,49.0,29.79,NNE,27,1.0,1.0,86,0.00,,,0.00,Wunderground v.1.15,2013-05-17 04:02:00,
2013-05-17 00:03:00,53.1,49.0,29.79,NNE,27,1.0,2.0,86,0.00,,,0.00,Wunderground v.1.15,2013-05-17 04:03:00,
2013-05-17 00:04:00,53.1,49.0,29.79,NNE,27,1.0,2.0,86,0.00,,,0.00,Wunderground v.1.15,2013-05-17 04:04:00,
2013-05-17 00:09:00,52.9,48.8,29.79,NNE,27,1.0,2.0,86,0.00,,,0.00,Wunderground v.1.15,2013-05-17 04:09:00,
2013-05-17 00:10:00,52.9,49.1,29.79,NNE,27,1.0,1.0,87,0.00,,,0.00,Wunderground v.1.15,2013-05-17 04:10:00,
2013-05-17 00:16:00,53.0,49.2,29.79,NE,39,1.0,2.0,87,0.00,,,0.00,Wunderground v.1.15,2013-05-17 04:16:00,
2013-05-17 00:21:00,53.1,49.3,29.79,NE,38,1.0,2.0,87,0.00,,,0.00,Wunderground v.1.15,2013-05-17 04:21:00,
2013-05-17 00:27:00,53.1,49.3,29.79,NE,44,1.0,2.0,87,0.00,,,0.00,Wunderground v.1.15,2013-05-17 04:27:00,
2013-05-17 00:32:00,53.0,49.2,29.79,NE,47,1.0,2.0,87,0.00,,,0.00,Wunderground v.1.15,2013-05-17 04:32:00,
2013-05-17 00:37:00,52.9,49.1,29.80,NE,47,1.0,2.0,87,0.00,,,0.00,Wunderground v.1.15,2013-05-17 04:37:00,
2013-05-17 00:43:00,52.4,48.6,29.80,NE,46,1.0,1.0,87,0.00,,,0.00,Wunderground v.1.15,2013-05-17 04:43:00,
2013-05-17 00:48:00,52.0,48.6,29.80,NE,41,0.0,1.0,88,0.00,,,0.00,Wunderground v.1.15,2013-05-17 04:48:00,
2013-05-17 00:53:00,51.4,48.0,29.80,NE,41,0.0,0.0,88,0.00,,,0.00,Wunderground v.1.15,2013-05-17 04:53:00,
2013-05-17 00:59:00,50.8,47.7,29.80,NNW,330,0.0,0.0,89,0.00,,,0.00,Wunderground v.1.15,2013-05-17 04:59:00,
2013-05-17 01:05:00,50.3,47.5,29.81,NNW,330,0.0,0.0,90,0.00,,,0.00,Wunderground v.1.15,2013-05-17 05:05:00,
2013-05-17 01:10:00,50.0,47.5,29.81,NNW,330,0.0,0.0,91,0.00,,,0.00,Wunderground v.1.15,2013-05-17 05:10:00,
2013-05-17 01:16:00,49.5,47.0,29.81,NNW,330,0.0,0.0,91,0.00,,,0.00,Wunderground v.1.15,2013-05-17 05:16:00,
2013-05-17 01:21:00,49.3,47.1,29.81,NNW,330,0.0,0.0,92,0.00,,,0.00,Wunderground v.1.15,2013-05-17 05:21:00,
2013-05-17 01:27:00,48.8,46.6,29.81,NNW,330,0.0,0.0,92,0.00,,,0.00,Wunderground v.1.15,2013-05-17 05:27:00,
2013-05-17 01:32:00,48.7,46.8,29.81,NNW,330,0.0,0.0,93,0.00,,,0.00,Wunderground v.1.15,2013-05-17 05:32:00,
2013-05-17 01:37:00,48.5,46.6,29.81,NNW,330,0.0,0.0,93,0.00,,,0.00,Wunderground v.1.15,2013-05-17 05:37:00,
2013-05-17 01:43:00,48.3,46.7,29.81,NNW,330,0.0,0.0,94,0.00,,,0.00,Wunderground v.1.15,2013-05-17 05:43:00,
2013-05-17 01:49:00,48.3,46.7,29.81,NNW,330,0.0,0.0,94,0.00,,,0.00,Wunderground v.1.15,2013-05-17 05:49:00,
2013-05-17 01:54:00,48.2,46.6,29.81,NNW,330,0.0,0.0,94,0.00,,,0.00,Wunderground v.1.15,2013-05-17 05:54:00,
2013-05-17 02:00:00,48.1,46.5,29.81,NNW,330,0.0,0.0,94,0.00,,,0.00,Wunderground v.1.15,2013-05-17 06:00:00,
2013-05-17 02:05:00,48.1,46.5,29.81,NNW,330,0.0,0.0,94,0.00,,,0.00,Wunderground v.1.15,2013-05-17 06:05:00,
2013-05-17 02:10:00,48.0,46.6,29.81,NNW,330,0.0,0.0,95,0.00,,,0.00,Wunderground v.1.15,2013-05-17 06:10:00,
2013-05-17 02:16:00,47.9,46.3,29.82,NNW,330,0.0,0.0,94,0.00,,,0.00,Wunderground v.1.15,2013-05-17 06:16:00,
2013-05-17 02:21:00,47.8,46.4,29.82,NNW,330,0.0,0.0,95,0.00,,,0.00,Wunderground v.1.15,2013-05-17 06:21:00,
2013-05-17 02:27:00,47.4,45.8,29.82,NNW,330,0.0,0.0,94,0.00,,,0.00,Wunderground v.1.15,2013-05-17 06:27:00,
2013-05-17 02:32:00,47.3,45.9,29.82,NNW,330,0.0,0.0,95,0.00,,,0.00,Wunderground v.1.15,2013-05-17 06:32:00,
2013-05-17 02:37:00,47.2,45.8,29.83,NNW,330,0.0,0.0,95,0.00,,,0.00,Wunderground v.1.15,2013-05-17 06:37:00,
2013-05-17 02:43:00,47.0,45.6,29.83,NNW,330,0.0,0.0,95,0.00,,,0.00,Wunderground v.1.15,2013-05-17 06:43:00,
2013-05-17 02:49:00,46.9,45.5,29.83,NNW,330,0.0,0.0,95,0.00,,,0.00,Wunderground v.1.15,2013-05-17 06:49:00,
2013-05-17 02:54:00,46.9,45.5,29.83,North,351,0.0,0.0,95,0.00,,,0.00,Wunderground v.1.15,2013-05-17 06:54:00,
2013-05-17 03:00:00,46.9,45.5,29.83,North,351,0.0,0.0,95,0.00,,,0.00,Wunderground v.1.15,2013-05-17 07:00:00,
2013-05-17 03:06:00,46.4,45.0,29.84,North,351,0.0,0.0,95,0.00,,,0.00,Wunderground v.1.15,2013-05-17 07:06:00,
2013-05-17 03:11:00,46.1,44.7,29.84,North,351,0.0,0.0,95,0.00,,,0.00,Wunderground v.1.15,2013-05-17 07:11:00,
2013-05-17 03:17:00,46.0,44.6,29.84,North,351,0.0,0.0,95,0.00,,,0.00,Wunderground v.1.15,2013-05-17 07:17:00,
2013-05-17 03:22:00,45.8,44.4,29.85,North,351,0.0,0.0,95,0.00,,,0.00,Wunderground v.1.15,2013-05-17 07:22:00,
2013-05-17 03:28:00,45.9,44.8,29.85,North,4,0.0,0.0,96,0.00,,,0.00,Wunderground v.1.15,2013-05-17 07:28:00,
2013-05-17 03:34:00,45.7,44.4,29.85,North,4,0.0,0.0,95,0.00,,,0.00,Wunderground v.1.15,2013-05-17 07:34:00,
2013-05-17 03:40:00,45.4,44.1,29.85,North,5,0.0,0.0,95,0.00,,,0.00,Wunderground v.1.15,2013-05-17 07:40:00,
2013-05-17 03:45:00,45.0,43.7,29.86,North,5,0.0,0.0,95,0.00,,,0.00,Wunderground v.1.15,2013-05-17 07:45:00,
2013-05-17 03:50:00,44.9,43.8,29.86,North,5,0.0,0.0,96,0.00,,,0.00,Wunderground v.1.15,2013-05-17 07:50:00,
2013-05-17 03:55:00,44.7,43.6,29.86,North,5,0.0,0.0,96,0.00,,,0.00,Wunderground v.1.15,2013-05-17 07:55:00,
2013-05-17 04:01:00,44.5,43.4,29.87,North,4,0.0,0.0,96,0.00,,,0.00,Wunderground v.1.15,2013-05-17 08:01:00,
2013-05-17 04:06:00,43.9,42.6,29.88,WSW,249,0.0,0.0,95,0.00,,,0.00,Wunderground v.1.15,2013-05-17 08:06:00,
2013-05-17 04:11:00,44.4,43.3,29.88,ENE,74,0.0,3.0,96,0.00,,,0.00,Wunderground v.1.15,2013-05-17 08:11:00,
2013-05-17 04:16:00,44.3,43.2,29.88,NNE,32,1.0,3.0,96,0.00,,,0.00,Wunderground v.1.15,2013-05-17 08:16:00,
2013-05-17 04:21:00,44.3,43.2,29.89,North,358,1.0,1.0,96,0.00,,,0.00,Wunderground v.1.15,2013-05-17 08:21:00,
2013-05-17 04:26:00,44.4,43.3,29.89,North,358,0.0,1.0,96,0.00,,,0.00,Wunderground v.1.15,2013-05-17 08:26:00,
2013-05-17 04:32:00,44.4,43.3,29.89,North,359,0.0,0.0,96,0.00,,,0.00,Wunderground v.1.15,2013-05-17 08:32:00,
2013-05-17 04:37:00,44.3,43.2,29.89,North,359,0.0,0.0,96,0.00,,,0.00,Wunderground v.1.15,2013-05-17 08:37:00,
2013-05-17 04:43:00,43.9,42.8,29.89,North,359,0.0,0.0,96,0.00,,,0.00,Wunderground v.1.15,2013-05-17 08:43:00,
2013-05-17 04:49:00,43.6,42.5,29.90,North,359,0.0,0.0,96,0.00,,,0.00,Wunderground v.1.15,2013-05-17 08:49:00,
2013-05-17 04:55:00,43.3,42.2,29.90,North,359,0.0,0.0,96,0.00,,,0.00,Wunderground v.1.15,2013-05-17 08:55:00,
2013-05-17 05:01:00,43.1,42.0,29.90,North,359,0.0,0.0,96,0.00,,,0.00,Wunderground v.1.15,2013-05-17 09:01:00,
2013-05-17 05:06:00,42.8,41.7,29.90,North,358,0.0,0.0,96,0.00,,,0.00,Wunderground v.1.15,2013-05-17 09:06:00,
2013-05-17 05:12:00,42.4,41.3,29.90,North,358,0.0,0.0,96,0.00,,,0.00,Wunderground v.1.15,2013-05-17 09:12:00,
2013-05-17 05:18:00,42.2,41.1,29.91,North,358,0.0,0.0,96,0.00,,,0.00,Wunderground v.1.15,2013-05-17 09:18:00,
2013-05-17 05:23:00,42.4,41.3,29.91,North,358,0.0,0.0,96,0.00,,,0.00,Wunderground v.1.15,2013-05-17 09:23:00,
2013-05-17 05:28:00,42.3,41.2,29.91,North,358,0.0,0.0,96,0.00,,,0.00,Wunderground v.1.15,2013-05-17 09:28:00,
2013-05-17 05:33:00,42.3,41.2,29.92,North,358,0.0,0.0,96,0.00,,,0.00,Wunderground v.1.15,2013-05-17 09:33:00,
2013-05-17 05:39:00,42.4,41.3,29.92,North,359,0.0,0.0,96,0.00,,,0.00,Wunderground v.1.15,2013-05-17 09:39:00,
2013-05-17 05:44:00,42.5,41.4,29.92,North,358,0.0,0.0,96,0.00,,,0.00,Wunderground v.1.15,2013-05-17 09:44:00,
2013-05-17 05:49:00,42.5,41.4,29.92,North,359,0.0,0.0,96,0.00,,,0.00,Wunderground v.1.15,2013-05-17 09:49:00,
2013-05-17 05:55:00,42.9,42.1,29.93,North,358,0.0,0.0,97,0.00,,,0.00,Wunderground v.1.15,2013-05-17 09:55:00,
2013-05-17 06:00:00,42.9,42.1,29.93,North,358,0.0,0.0,97,0.00,,,0.00,Wunderground v.1.15,2013-05-17 10:00:00,
2013-05-17 06:06:00,43.0,42.2,29.93,North,358,0.0,0.0,97,0.00,,,0.00,Wunderground v.1.15,2013-05-17 10:06:00,
2013-05-17 06:11:00,43.1,42.3,29.93,North,358,0.0,0.0,97,0.00,,,0.00,Wunderground v.1.15,2013-05-17 10:11:00,
2013-05-17 06:16:00,43.1,42.3,29.93,North,358,0.0,0.0,97,0.00,,,0.00,Wunderground v.1.15,2013-05-17 10:16:00,
2013-05-17 06:22:00,44.0,43.2,29.93,North,358,0.0,0.0,97,0.00,,,0.00,Wunderground v.1.15,2013-05-17 10:22:00,
2013-05-17 06:28:00,44.7,43.6,29.93,North,358,0.0,0.0,96,0.00,,,0.00,Wunderground v.1.15,2013-05-17 10:28:00,
2013-05-17 06:33:00,45.7,44.9,29.94,North,358,0.0,0.0,97,0.00,,,0.00,Wunderground v.1.15,2013-05-17 10:33:00,
2013-05-17 06:39:00,47.1,46.0,29.94,North,358,0.0,0.0,96,0.00,,,0.00,Wunderground v.1.15,2013-05-17 10:39:00,
2013-05-17 06:45:00,47.5,46.4,29.95,North,359,0.0,0.0,96,0.00,,,0.00,Wunderground v.1.15,2013-05-17 10:45:00,
2013-05-17 06:51:00,47.9,46.5,29.95,North,359,0.0,0.0,95,0.00,,,0.00,Wunderground v.1.15,2013-05-17 10:51:00,
2013-05-17 06:56:00,48.3,46.9,29.96,North,359,0.0,0.0,95,0.00,,,0.00,Wunderground v.1.15,2013-05-17 10:56:00,
2013-05-17 07:01:00,49.3,47.9,29.96,North,358,0.0,0.0,95,0.00,,,0.00,Wunderground v.1.15,2013-05-17 11:01:00,
2013-05-17 07:07:00,50.1,48.4,29.96,East,89,0.0,1.0,94,0.00,,,0.00,Wunderground v.1.15,2013-05-17 11:07:00,
2013-05-17 07:12:00,51.3,49.6,29.96,East,94,1.0,1.0,94,0.00,,,0.00,Wunderground v.1.15,2013-05-17 11:12:00,
2013-05-17 07:18:00,53.5,50.3,29.96,NE,55,0.0,2.0,89,0.00,,,0.00,Wunderground v.1.15,2013-05-17 11:18:00,
2013-05-17 07:24:00,55.1,49.4,29.96,NNE,16,1.0,2.0,81,0.00,,,0.00,Wunderground v.1.15,2013-05-17 11:24:00,
2013-05-17 07:29:00,56.2,49.4,29.96,NNE,33,2.0,3.0,78,0.00,,,0.00,Wunderground v.1.15,2013-05-17 11:29:00,
2013-05-17 07:35:00,57.4,49.5,29.97,NNE,28,1.0,3.0,75,0.00,,,0.00,Wunderground v.1.15,2013-05-17 11:35:00,
2013-05-17 07:40:00,58.3,49.7,29.97,NNW,343,1.0,1.0,73,0.00,,,0.00,Wunderground v.1.15,2013-05-17 11:40:00,
2013-05-17 07:46:00,58.7,48.6,29.97,ENE,65,2.0,6.0,69,0.00,,,0.00,Wunderground v.1.15,2013-05-17 11:46:00,
2013-05-17 07:51:00,59.1,49.3,29.97,NE,37,2.0,3.0,70,0.00,,,0.00,Wunderground v.1.15,2013-05-17 11:51:00,
2013-05-17 07:57:00,59.3,47.9,29.97,ESE,109,2.0,6.0,66,0.00,,,0.00,Wunderground v.1.15,2013-05-17 11:57:00,
2013-05-17 08:02:00,60.0,48.6,29.97,WNW,301,2.0,2.0,66,0.00,,,0.00,Wunderground v.1.15,2013-05-17 12:02:00,
2013-05-17 08:08:00,60.1,47.5,29.97,NNE,12,2.0,6.0,63,0.00,,,0.00,Wunderground v.1.15,2013-05-17 12:08:00,
2013-05-17 08:13:00,59.9,47.7,29.97,ENE,76,4.0,4.0,64,0.00,,,0.00,Wunderground v.1.15,2013-05-17 12:13:00,
2013-05-17 08:18:00,60.2,47.1,29.97,NE,56,4.0,4.0,62,0.00,,,0.00,Wunderground v.1.15,2013-05-17 12:18:00,
2013-05-17 08:24:00,60.1,45.7,29.97,NNE,18,4.0,11.0,59,0.00,,,0.00,Wunderground v.1.15,2013-05-17 12:24:00,
2013-05-17 08:30:00,60.0,46.1,29.97,NW,324,5.0,5.0,60,0.00,,,0.00,Wunderground v.1.15,2013-05-17 12:30:00,
2013-05-17 08:35:00,60.1,46.2,29.97,North,11,4.0,6.0,60,0.00,,,0.00,Wunderground v.1.15,2013-05-17 12:35:00,
2013-05-17 08:41:00,60.3,45.5,29.97,NNE,22,4.0,6.0,58,0.00,,,0.00,Wunderground v.1.15,2013-05-17 12:41:00,
2013-05-17 08:47:00,60.3,45.5,29.98,North,359,4.0,6.0,58,0.00,,,0.00,Wunderground v.1.15,2013-05-17 12:47:00,
2013-05-17 08:53:00,60.5,46.5,29.98,WSW,255,3.0,7.0,60,0.00,,,0.00,Wunderground v.1.15,2013-05-17 12:53:00,
2013-05-17 08:59:00,60.6,45.3,29.99,WNW,287,5.0,9.0,57,0.00,,,0.00,Wunderground v.1.15,2013-05-17 12:59:00,
2013-05-17 09:04:00,60.7,46.3,29.99,WNW,287,4.0,5.0,59,0.00,,,0.00,Wunderground v.1.15,2013-05-17 13:04:00,
2013-05-17 09:10:00,60.9,45.6,29.99,SSW,208,3.0,3.0,57,0.00,,,0.00,Wunderground v.1.15,2013-05-17 13:10:00,
2013-05-17 09:16:00,61.3,46.8,29.99,NNE,17,4.0,8.0,59,0.00,,,0.00,Wunderground v.1.15,2013-05-17 13:16:00,
2013-05-17 09:21:00,61.3,45.5,29.99,NE,43,4.0,9.0,56,0.00,,,0.00,Wunderground v.1.15,2013-05-17 13:21:00,
2013-05-17 09:27:00,61.2,46.8,29.99,NNE,25,4.0,9.0,59,0.00,,,0.00,Wunderground v.1.15,2013-05-17 13:27:00,
2013-05-17 09:33:00,61.0,44.7,29.99,North,349,4.0,13.0,55,0.00,,,0.00,Wunderground v.1.15,2013-05-17 13:33:00,
2013-05-17 09:39:00,60.8,45.0,29.99,ENE,64,5.0,13.0,56,0.00,,,0.00,Wunderground v.1.15,2013-05-17 13:39:00,
2013-05-17 09:45:00,61.0,44.2,29.99,SSE,153,5.0,11.0,54,0.00,,,0.00,Wunderground v.1.15,2013-05-17 13:45:00,
2013-05-17 09:51:00,61.5,44.2,29.99,West,278,5.0,11.0,53,0.00,,,0.00,Wunderground v.1.15,2013-05-17 13:51:00,
2013-05-17 09:56:00,61.5,44.7,29.99,West,264,4.0,11.0,54,0.00,,,0.00,Wunderground v.1.15,2013-05-17 13:56:00,
2013-05-17 10:02:00,61.8,45.0,29.99,NE,41,3.0,5.0,54,0.00,,,0.00,Wunderground v.1.15,2013-05-17 14:02:00,
2013-05-17 10:08:00,61.9,45.5,29.99,NE,49,3.0,9.0,55,0.00,,,0.00,Wunderground v.1.15,2013-05-17 14:08:00,
2013-05-17 10:13:00,62.1,45.2,30.00,NE,41,4.0,4.0,54,0.00,,,0.00,Wunderground v.1.15,2013-05-17 14:13:00,
2013-05-17 10:18:00,62.6,44.7,30.00,WNW,284,3.0,4.0,52,0.00,,,0.00,Wunderground v.1.15,2013-05-17 14:18:00,
2013-05-17 10:24:00,62.7,44.8,30.00,SW,232,3.0,7.0,52,0.00,,,0.00,Wunderground v.1.15,2013-05-17 14:24:00,
2013-05-17 10:30:00,62.9,44.5,30.00,ENE,60,4.0,4.0,51,0.00,,,0.00,Wunderground v.1.15,2013-05-17 14:30:00,
2013-05-17 10:36:00,62.7,44.8,30.00,WSW,257,4.0,7.0,52,0.00,,,0.00,Wunderground v.1.15,2013-05-17 14:36:00,
2013-05-17 10:42:00,63.2,44.8,30.00,West,278,3.0,8.0,51,0.00,,,0.00,Wunderground v.1.15,2013-05-17 14:42:00,
2013-05-17 10:48:00,62.8,44.9,30.00,NNE,15,5.0,11.0,52,0.00,,,0.00,Wunderground v.1.15,2013-05-17 14:48:00,
2013-05-17 10:54:00,63.3,45.4,30.00,WNW,295,5.0,6.0,52,0.00,,,0.00,Wunderground v.1.15,2013-05-17 14:54:00,
2013-05-17 11:00:00,63.6,45.6,30.00,NNW,340,3.0,5.0,52,0.00,,,0.00,Wunderground v.1.15,2013-05-17 15:00:00,
2013-05-17 11:05:00,63.9,43.3,30.01,WNW,290,5.0,8.0,47,0.00,,,0.00,Wunderground v.1.15,2013-05-17 15:05:00,
2013-05-17 11:10:00,64.0,44.4,30.01,NNE,14,5.0,5.0,49,0.00,,,0.00,Wunderground v.1.15,2013-05-17 15:10:00,
2013-05-17 11:15:00,63.8,44.8,30.01,NE,49,4.0,8.0,50,0.00,,,0.00,Wunderground v.1.15,2013-05-17 15:15:00,
2013-05-17 11:20:00,64.2,44.1,30.01,NE,36,4.0,4.0,48,0.00,,,0.00,Wunderground v.1.15,2013-05-17 15:20:00,
2013-05-17 11:26:00,64.4,43.7,30.01,NNE,33,5.0,12.0,47,0.00,,,0.00,Wunderground v.1.15,2013-05-17 15:26:00,
2013-05-17 11:31:00,64.3,45.3,30.01,NW,316,6.0,10.0,50,0.00,,,0.00,Wunderground v.1.15,2013-05-17 15:31:00,
2013-05-17 11:36:00,64.3,45.3,30.01,WSW,255,6.0,10.0,50,0.00,,,0.00,Wunderground v.1.15,2013-05-17 15:36:00,
2013-05-17 11:42:00,64.8,45.2,30.00,WSW,248,4.0,5.0,49,0.00,,,0.00,Wunderground v.1.15,2013-05-17 15:42:00,
2013-05-17 11:47:00,65.5,44.2,30.01,NW,308,4.0,7.0,46,0.00,,,0.00,Wunderground v.1.15,2013-05-17 15:47:00,
2013-05-17 11:52:00,65.8,46.1,30.01,North,11,4.0,7.0,49,0.00,,,0.00,Wunderground v.1.15,2013-05-17 15:52:00,
2013-05-17 11:58:00,65.5,46.9,30.00,North,359,4.0,13.0,51,0.00,,,0.00,Wunderground v.1.15,2013-05-17 15:58:00,
2013-05-17 12:03:00,66.0,45.7,30.00,WNW,300,3.0,6.0,48,0.00,,,0.00,Wunderground v.1.15,2013-05-17 16:03:00,
2013-05-17 12:09:00,65.5,44.2,30.00,NNE,17,4.0,16.0,46,0.00,,,0.00,Wunderground v.1.15,2013-05-17 16:09:00,
2013-05-17 12:15:00,65.4,44.1,30.01,NW,316,4.0,16.0,46,0.00,,,0.00,Wunderground v.1.15,2013-05-17 16:15:00,
2013-05-17 12:20:00,65.6,44.3,30.01,NNE,12,3.0,16.0,46,0.00,,,0.00,Wunderground v.1.15,2013-05-17 16:20:00,
2013-05-17 12:26:00,65.5,44.7,30.00,West,270,4.0,16.0,47,0.00,,,0.00,Wunderground v.1.15,2013-05-17 16:26:00,
2013-05-17 12:31:00,65.8,44.4,30.00,NNW,335,4.0,16.0,46,0.00,,,0.00,Wunderground v.1.15,2013-05-17 16:31:00,
2013-05-17 12:36:00,66.2,45.4,30.01,WNW,301,4.0,16.0,47,0.00,,,0.00,Wunderground v.1.15,2013-05-17 16:36:00,
2013-05-17 12:41:00,66.2,45.4,30.00,West,278,4.0,6.0,47,0.00,,,0.00,Wunderground v.1.15,2013-05-17 16:41:00,
2013-05-17 12:47:00,66.4,45.5,30.01,NE,35,4.0,16.0,47,0.00,,,0.00,Wunderground v.1.15,2013-05-17 16:47:00,
2013-05-17 12:52:00,65.8,43.9,30.01,NE,50,5.0,16.0,45,0.00,,,0.00,Wunderground v.1.15,2013-05-17 16:52:00,
2013-05-17 12:57:00,66.2,44.8,30.00,North,6,4.0,16.0,46,0.00,,,0.00,Wunderground v.1.15,2013-05-17 16:57:00,
2013-05-17 13:03:00,67.0,46.1,30.00,NNE,29,3.0,16.0,47,0.00,,,0.00,Wunderground v.1.15,2013-05-17 17:03:00,
2013-05-17 13:08:00,66.7,43.5,30.01,ESE,107,4.0,16.0,43,0.00,,,0.00,Wunderground v.1.15,2013-05-17 17:08:00,
2013-05-17 13:14:00,66.7,44.1,30.01,North,8,4.0,16.0,44,0.00,,,0.00,Wunderground v.1.15,2013-05-17 17:14:00,
2013-05-17 13:19:00,66.6,44.6,30.01,North,349,4.0,16.0,45,0.00,,,0.00,Wunderground v.1.15,2013-05-17 17:19:00,
2013-05-17 13:25:00,67.3,45.8,30.01,North,5,3.0,16.0,46,0.00,,,0.00,Wunderground v.1.15,2013-05-17 17:25:00,
2013-05-17 13:31:00,67.4,44.1,30.01,NE,49,3.0,16.0,43,0.00,,,0.00,Wunderground v.1.15,2013-05-17 17:31:00,
2013-05-17 13:37:00,67.6,43.7,30.01,North,6,3.0,16.0,42,0.00,,,0.00,Wunderground v.1.15,2013-05-17 17:37:00,
2013-05-17 13:42:00,67.7,45.0,30.01,WSW,253,3.0,16.0,44,0.00,,,0.00,Wunderground v.1.15,2013-05-17 17:42:00,
2013-05-17 13:47:00,68.0,44.7,30.01,NE,54,4.0,16.0,43,0.00,,,0.00,Wunderground v.1.15,2013-05-17 17:47:00,
2013-05-17 13:53:00,67.7,46.2,30.01,NE,38,4.0,16.0,46,0.00,,,0.00,Wunderground v.1.15,2013-05-17 17:53:00,
2013-05-17 13:58:00,67.7,45.0,30.02,NW,314,6.0,16.0,44,0.00,,,0.00,Wunderground v.1.15,2013-05-17 17:58:00,
2013-05-17 14:04:00,67.8,45.1,30.02,WNW,301,5.0,16.0,44,0.00,,,0.00,Wunderground v.1.15,2013-05-17 18:04:00,
2013-05-17 14:09:00,68.1,44.1,30.02,SW,217,4.0,16.0,42,0.00,,,0.00,Wunderground v.1.15,2013-05-17 18:09:00,
2013-05-17 14:15:00,68.2,43.6,30.02,NNE,26,3.0,16.0,41,0.00,,,0.00,Wunderground v.1.15,2013-05-17 18:15:00,
2013-05-17 14:20:00,68.1,43.5,30.02,NNE,26,3.0,16.0,41,0.00,,,0.00,Wunderground v.1.15,2013-05-17 18:20:00,
2013-05-17 14:25:00,68.1,44.1,30.02,SW,236,4.0,16.0,42,0.00,,,0.00,Wunderground v.1.15,2013-05-17 18:25:00,
2013-05-17 14:30:00,68.6,43.9,30.02,West,276,3.0,3.0,41,0.00,,,0.00,Wunderground v.1.15,2013-05-17 18:30:00,
2013-05-17 14:35:00,69.5,44.1,30.02,NE,36,1.0,16.0,40,0.00,,,0.00,Wunderground v.1.15,2013-05-17 18:35:00,
2013-05-17 14:41:00,69.6,44.8,30.02,West,277,3.0,4.0,41,0.00,,,0.00,Wunderground v.1.15,2013-05-17 18:41:00,
2013-05-17 14:46:00,69.7,44.3,30.02,NE,44,4.0,16.0,40,0.00,,,0.00,Wunderground v.1.15,2013-05-17 18:46:00,
2013-05-17 14:51:00,69.8,45.0,30.03,SSW,201,4.0,16.0,41,0.00,,,0.00,Wunderground v.1.15,2013-05-17 18:51:00,
2013-05-17 14:57:00,69.9,44.5,30.02,NNW,347,3.0,16.0,40,0.00,,,0.00,Wunderground v.1.15,2013-05-17 18:57:00,
2013-05-17 15:03:00,70.2,46.6,30.02,SW,221,3.0,16.0,43,0.00,,,0.00,Wunderground v.1.15,2013-05-17 19:03:00,
2013-05-17 15:08:00,71.0,46.1,30.02,WNW,288,3.0,16.0,41,0.00,,,0.00,Wunderground v.1.15,2013-05-17 19:08:00,
2013-05-17 15:14:00,70.9,44.7,30.02,NNW,328,3.0,16.0,39,0.00,,,0.00,Wunderground v.1.15,2013-05-17 19:14:00,
2013-05-17 15:20:00,70.9,46.7,30.02,WNW,302,3.0,3.0,42,0.00,,,0.00,Wunderground v.1.15,2013-05-17 19:20:00,
2013-05-17 15:25:00,70.4,43.6,30.02,ENE,59,3.0,16.0,38,0.00,,,0.00,Wunderground v.1.15,2013-05-17 19:25:00,
2013-05-17 15:31:00,69.2,43.8,30.02,NNE,15,3.0,16.0,40,0.00,,,0.00,Wunderground v.1.15,2013-05-17 19:31:00,
2013-05-17 15:37:00,69.8,45.0,30.02,WNW,288,4.0,16.0,41,0.00,,,0.00,Wunderground v.1.15,2013-05-17 19:37:00,
2013-05-17 15:43:00,70.7,43.1,30.02,West,264,4.0,16.0,37,0.00,,,0.00,Wunderground v.1.15,2013-05-17 19:43:00,
2013-05-17 15:49:00,70.9,44.7,30.02,North,356,4.0,16.0,39,0.00,,,0.00,Wunderground v.1.15,2013-05-17 19:49:00,
2013-05-17 15:55:00,71.1,44.9,30.02,NW,319,4.0,16.0,39,0.00,,,0.00,Wunderground v.1.15,2013-05-17 19:55:00,
2013-05-17 16:00:00,71.2,44.3,30.03,West,280,3.0,3.0,38,0.00,,,0.00,Wunderground v.1.15,2013-05-17 20:00:00,
2013-05-17 16:05:00,70.7,43.8,30.03,WNW,295,4.0,16.0,38,0.00,,,0.00,Wunderground v.1.15,2013-05-17 20:05:00,
2013-05-17 16:11:00,70.6,45.1,30.02,NNW,345,3.0,4.0,40,0.00,,,0.00,Wunderground v.1.15,2013-05-17 20:11:00,
2013-05-17 16:17:00,70.7,42.4,30.03,West,259,3.0,16.0,36,0.00,,,0.00,Wunderground v.1.15,2013-05-17 20:17:00,
2013-05-17 16:23:00,70.8,42.5,30.03,ENE,64,3.0,16.0,36,0.00,,,0.00,Wunderground v.1.15,2013-05-17 20:23:00,
2013-05-17 16:28:00,70.9,42.6,30.03,WSW,253,4.0,16.0,36,0.00,,,0.00,Wunderground v.1.15,2013-05-17 20:28:00,
2013-05-17 16:34:00,71.1,43.5,30.03,WSW,250,4.0,16.0,37,0.00,,,0.00,Wunderground v.1.15,2013-05-17 20:34:00,
2013-05-17 16:40:00,71.3,43.7,30.03,West,272,3.0,16.0,37,0.00,,,0.00,Wunderground v.1.15,2013-05-17 20:40:00,
2013-05-17 16:45:00,71.1,42.8,30.03,SW,218,3.0,16.0,36,0.00,,,0.00,Wunderground v.1.15,2013-05-17 20:45:00,
2013-05-17 16:50:00,71.0,44.1,30.04,NNW,339,4.0,4.0,38,0.00,,,0.00,Wunderground v.1.15,2013-05-17 20:50:00,
2013-05-17 16:56:00,71.1,43.5,30.04,NNW,345,3.0,16.0,37,0.00,,,0.00,Wunderground v.1.15,2013-05-17 20:56:00,
2013-05-17 17:01:00,71.2,42.9,30.04,SW,219,2.0,16.0,36,0.00,,,0.00,Wunderground v.1.15,2013-05-17 21:01:00,
2013-05-17 17:06:00,71.2,42.9,30.04,NNE,32,3.0,16.0,36,0.00,,,0.00,Wunderground v.1.15,2013-05-17 21:06:00,
2013-05-17 17:12:00,70.6,42.3,30.04,ENE,62,4.0,16.0,36,0.00,,,0.00,Wunderground v.1.15,2013-05-17 21:12:00,
2013-05-17 17:17:00,70.5,43.7,30.04,North,360,4.0,16.0,38,0.00,,,0.00,Wunderground v.1.15,2013-05-17 21:17:00,
2013-05-17 17:22:00,70.9,42.6,30.05,ENE,66,4.0,16.0,36,0.00,,,0.00,Wunderground v.1.15,2013-05-17 21:22:00,
2013-05-17 17:28:00,71.5,43.1,30.05,WNW,284,3.0,16.0,36,0.00,,,0.00,Wunderground v.1.15,2013-05-17 21:28:00,
2013-05-17 17:34:00,71.4,42.3,30.05,NNE,26,3.0,16.0,35,0.00,,,0.00,Wunderground v.1.15,2013-05-17 21:34:00,
2013-05-17 17:40:00,71.4,43.8,30.05,NNW,336,4.0,16.0,37,0.00,,,0.00,Wunderground v.1.15,2013-05-17 21:40:00,
2013-05-17 17:45:00,70.9,41.9,30.05,WNW,288,4.0,16.0,35,0.00,,,0.00,Wunderground v.1.15,2013-05-17 21:45:00,
2013-05-17 17:51:00,70.7,44.5,30.05,WNW,291,3.0,16.0,39,0.00,,,0.00,Wunderground v.1.15,2013-05-17 21:51:00,
2013-05-17 17:56:00,70.7,42.4,30.06,NNE,19,3.0,16.0,36,0.00,,,0.00,Wunderground v.1.15,2013-05-17 21:56:00,
2013-05-17 18:01:00,70.5,42.2,30.06,ENE,59,4.0,16.0,36,0.00,,,0.00,Wunderground v.1.15,2013-05-17 22:01:00,
2013-05-17 18:06:00,70.8,41.8,30.06,NW,325,4.0,16.0,35,0.00,,,0.00,Wunderground v.1.15,2013-05-17 22:06:00,
2013-05-17 18:12:00,70.5,40.8,30.06,North,350,4.0,16.0,34,0.00,,,0.00,Wunderground v.1.15,2013-05-17 22:12:00,
2013-05-17 18:17:00,70.6,42.3,30.06,East,88,3.0,16.0,36,0.00,,,0.00,Wunderground v.1.15,2013-05-17 22:17:00,
2013-05-17 18:23:00,70.9,41.9,30.07,ENE,65,2.0,16.0,35,0.00,,,0.00,Wunderground v.1.15,2013-05-17 22:23:00,
2013-05-17 18:29:00,70.5,42.2,30.07,NW,308,4.0,16.0,36,0.00,,,0.00,Wunderground v.1.15,2013-05-17 22:29:00,
2013-05-17 18:34:00,69.6,41.5,30.07,NNE,22,4.0,16.0,36,0.00,,,0.00,Wunderground v.1.15,2013-05-17 22:34:00,
2013-05-17 18:39:00,68.9,40.8,30.07,NNE,27,3.0,16.0,36,0.00,,,0.00,Wunderground v.1.15,2013-05-17 22:39:00,
2013-05-17 18:44:00,68.5,41.2,30.07,NE,55,4.0,16.0,37,0.00,,,0.00,Wunderground v.1.15,2013-05-17 22:44:00,
2013-05-17 18:49:00,68.2,41.6,30.08,ENE,75,4.0,16.0,38,0.00,,,0.00,Wunderground v.1.15,2013-05-17 22:49:00,
2013-05-17 18:55:00,66.8,46.5,30.08,SSE,149,4.0,16.0,48,0.00,,,0.00,Wunderground v.1.15,2013-05-17 22:55:00,
2013-05-17 19:01:00,66.4,46.7,30.09,SE,136,3.0,16.0,49,0.00,,,0.00,Wunderground v.1.15,2013-05-17 23:01:00,
2013-05-17 19:06:00,65.4,47.8,30.09,South,184,4.0,16.0,53,0.00,,,0.00,Wunderground v.1.15,2013-05-17 23:06:00,
2013-05-17 19:11:00,63.9,47.4,30.10,East,83,5.0,16.0,55,0.00,,,0.00,Wunderground v.1.15,2013-05-17 23:11:00,
2013-05-17 19:17:00,62.6,47.6,30.10,SE,134,4.0,16.0,58,0.00,,,0.00,Wunderground v.1.15,2013-05-17 23:17:00,
2013-05-17 19:22:00,61.8,47.8,30.10,SSW,205,4.0,16.0,60,0.00,,,0.00,Wunderground v.1.15,2013-05-17 23:22:00,
2013-05-17 19:27:00,61.3,48.2,30.11,SE,145,4.0,16.0,62,0.00,,,0.00,Wunderground v.1.15,2013-05-17 23:27:00,
2013-05-17 19:33:00,60.5,49.1,30.12,South,181,3.0,16.0,66,0.00,,,0.00,Wunderground v.1.15,2013-05-17 23:33:00,
2013-05-17 19:39:00,59.4,48.8,30.12,SE,142,4.0,16.0,68,0.00,,,0.00,Wunderground v.1.15,2013-05-17 23:39:00,
2013-05-17 19:45:00,58.8,49.0,30.12,ESE,104,3.0,16.0,70,0.00,,,0.00,Wunderground v.1.15,2013-05-17 23:45:00,
2013-05-17 19:51:00,58.1,48.7,30.13,SSE,153,3.0,16.0,71,0.00,,,0.00,Wunderground v.1.15,2013-05-17 23:51:00,
2013-05-17 19:57:00,57.6,48.3,30.13,East,91,3.0,16.0,71,0.00,,,0.00,Wunderground v.1.15,2013-05-17 23:57:00,
2013-05-17 20:03:00,57.1,48.2,30.13,SSW,195,3.0,16.0,72,0.00,,,0.00,Wunderground v.1.15,2013-05-18 00:03:00,
2013-05-17 20:08:00,56.8,47.9,30.13,SSE,153,2.0,16.0,72,0.00,,,0.00,Wunderground v.1.15,2013-05-18 00:08:00,
2013-05-17 20:14:00,56.5,47.6,30.14,SSW,211,2.0,16.0,72,0.00,,,0.00,Wunderground v.1.15,2013-05-18 00:14:00,
2013-05-17 20:19:00,56.2,47.7,30.14,SSW,198,1.0,16.0,73,0.00,,,0.00,Wunderground v.1.15,2013-05-18 00:19:00,
2013-05-17 20:24:00,55.8,47.3,30.14,SW,224,1.0,16.0,73,0.00,,,0.00,Wunderground v.1.15,2013-05-18 00:24:00,
2013-05-17 20:29:00,55.5,47.0,30.15,WSW,239,1.0,16.0,73,0.00,,,0.00,Wunderground v.1.15,2013-05-18 00:29:00,
2013-05-17 20:34:00,55.3,46.8,30.15,SE,141,1.0,16.0,73,0.00,,,0.00,Wunderground v.1.15,2013-05-18 00:34:00,
2013-05-17 20:40:00,55.0,46.9,30.15,SW,226,0.0,16.0,74,0.00,,,0.00,Wunderground v.1.15,2013-05-18 00:40:00,
2013-05-17 20:46:00,54.7,46.6,30.15,SW,228,1.0,16.0,74,0.00,,,0.00,Wunderground v.1.15,2013-05-18 00:46:00,
2013-05-17 20:51:00,54.6,46.5,30.16,SSE,151,1.0,16.0,74,0.00,,,0.00,Wunderground v.1.15,2013-05-18 00:51:00,
2013-05-17 20:57:00,54.2,46.1,30.16,SW,232,0.0,16.0,74,0.00,,,0.00,Wunderground v.1.15,2013-05-18 00:57:00,
2013-05-17 21:03:00,53.8,46.1,30.17,SW,232,0.0,16.0,75,0.00,,,0.00,Wunderground v.1.15,2013-05-18 01:03:00,
2013-05-17 21:08:00,53.2,45.8,30.17,SW,232,0.0,16.0,76,0.00,,,0.00,Wunderground v.1.15,2013-05-18 01:08:00,
2013-05-17 21:13:00,52.7,45.7,30.17,SW,232,0.0,16.0,77,0.00,,,0.00,Wunderground v.1.15,2013-05-18 01:13:00,
2013-05-17 21:19:00,52.1,45.8,30.17,SW,232,0.0,16.0,79,0.00,,,0.00,Wunderground v.1.15,2013-05-18 01:19:00,
2013-05-17 21:25:00,51.5,45.5,30.18,SW,232,0.0,16.0,80,0.00,,,0.00,Wunderground v.1.15,2013-05-18 01:25:00,
2013-05-17 21:31:00,51.0,45.4,30.19,SW,232,0.0,16.0,81,0.00,,,0.00,Wunderground v.1.15,2013-05-18 01:31:00,
2013-05-17 21:37:00,50.5,45.5,30.19,SW,232,0.0,16.0,83,0.00,,,0.00,Wunderground v.1.15,2013-05-18 01:37:00,
2013-05-17 21:42:00,50.3,45.6,30.19,SW,232,0.0,16.0,84,0.00,,,0.00,Wunderground v.1.15,2013-05-18 01:42:00,
2013-05-17 21:48:00,50.0,45.4,30.19,SW,232,0.0,16.0,84,0.00,,,0.00,Wunderground v.1.15,2013-05-18 01:48:00,
2013-05-17 21:53:00,49.9,45.3,30.19,SW,232,0.0,16.0,84,0.00,,,0.00,Wunderground v.1.15,2013-05-18 01:53:00,
2013-05-17 21:58:00,49.7,45.4,30.19,SW,232,0.0,16.0,85,0.00,,,0.00,Wunderground v.1.15,2013-05-18 01:58:00,
2013-05-17 22:04:00,49.3,45.0,30.19,WNW,297,0.0,16.0,85,0.00,,,0.00,Wunderground v.1.15,2013-05-18 02:04:00,
2013-05-17 22:09:00,48.9,44.6,30.20,WNW,297,0.0,16.0,85,0.00,,,0.00,Wunderground v.1.15,2013-05-18 02:09:00,
2013-05-17 22:14:00,48.6,44.6,30.20,WNW,297,0.0,16.0,86,0.00,,,0.00,Wunderground v.1.15,2013-05-18 02:14:00,
2013-05-17 22:19:00,48.3,44.6,30.20,WNW,297,0.0,16.0,87,0.00,,,0.00,Wunderground v.1.15,2013-05-18 02:19:00,
2013-05-17 22:24:00,48.1,44.7,30.20,WNW,297,0.0,16.0,88,0.00,,,0.00,Wunderground v.1.15,2013-05-18 02:24:00,
2013-05-17 22:30:00,47.9,44.5,30.20,NNW,329,0.0,16.0,88,0.00,,,0.00,Wunderground v.1.15,2013-05-18 02:30:00,
2013-05-17 22:35:00,47.7,44.3,30.20,NNW,329,0.0,16.0,88,0.00,,,0.00,Wunderground v.1.15,2013-05-18 02:35:00,
2013-05-17 22:41:00,47.5,44.4,30.20,NNW,329,0.0,16.0,89,0.00,,,0.00,Wunderground v.1.15,2013-05-18 02:41:00,
2013-05-17 22:47:00,47.4,44.3,30.20,NNW,329,0.0,16.0,89,0.00,,,0.00,Wunderground v.1.15,2013-05-18 02:47:00,
2013-05-17 22:52:00,47.2,44.1,30.20,NNW,329,0.0,16.0,89,0.00,,,0.00,Wunderground v.1.15,2013-05-18 02:52:00,
2013-05-17 22:57:00,47.1,44.3,30.20,NNW,329,0.0,16.0,90,0.00,,,0.00,Wunderground v.1.15,2013-05-18 02:57:00,
2013-05-17 23:02:00,46.9,44.1,30.20,NNW,329,0.0,16.0,90,0.00,,,0.00,Wunderground v.1.15,2013-05-18 03:02:00,
2013-05-17 23:08:00,46.5,43.7,30.20,NNW,329,0.0,16.0,90,0.00,,,0.00,Wunderground v.1.15,2013-05-18 03:08:00,
2013-05-17 23:13:00,46.5,44.0,30.20,NNW,329,0.0,0.0,91,0.00,,,0.00,Wunderground v.1.15,2013-05-18 03:13:00,
2013-05-17 23:18:00,46.4,43.9,30.20,NNW,329,0.0,0.0,91,0.00,,,0.00,Wunderground v.1.15,2013-05-18 03:18:00,
2013-05-17 23:23:00,46.1,43.6,30.21,NNW,329,0.0,0.0,91,0.00,,,0.00,Wunderground v.1.15,2013-05-18 03:23:00,
2013-05-17 23:29:00,45.7,43.2,30.21,NNW,329,0.0,0.0,91,0.00,,,0.00,Wunderground v.1.15,2013-05-18 03:29:00,
2013-05-17 23:35:00,45.4,43.2,30.21,NNW,329,0.0,0.0,92,0.00,,,0.00,Wunderground v.1.15,2013-05-18 03:35:00,
2013-05-17 23:40:00,45.4,43.2,30.21,NNW,329,0.0,0.0,92,0.00,,,0.00,Wunderground v.1.15,2013-05-18 03:40:00,
2013-05-17 23:45:00,45.2,43.0,30.21,NNW,329,0.0,0.0,92,0.00,,,0.00,Wunderground v.1.15,2013-05-18 03:45:00,
2013-05-17 23:50:00,45.2,43.3,30.22,NNW,329,0.0,0.0,93,0.00,,,0.00,Wunderground v.1.15,2013-05-18 03:50:00,
2013-05-17 23:55:00,45.1,43.2,30.22,NNW,329,0.0,0.0,93,0.00,,,0.00,Wunderground v.1.15,2013-05-18 03:55:00,